Вернуться в каталог

STARLINK-2504

АктивенСвязьVLEO
NORAD 48328·PAYLOAD·🇺🇸 United States

Запущен Apr 29, 2021 с Cape Canaveral Space Force Station

Loading…

Ближайшие Пролёты (ближайшие 24 часа)

TLE

СвежийSource: CelesTrak SupGP

Эпоха: Sep 14, 2026, 19:53 UTC

1 48328C 21036BE  26257.82895833 -.00019854  00000+0 -63821-3 0  2573
2 48328  53.1569 300.7768 0001131  80.9821 336.1465 15.31723462    14

Отслеживайте STARLINK-2504 в реальном времени с AllMySat

Download on the App Store